CST,Max TemperatureF,Mean TemperatureF,Min TemperatureF,Max Dew PointF,MeanDew PointF,Min DewpointF,Max Humidity, Mean Humidity, Min Humidity, Max Sea Level PressureIn, Mean Sea Level PressureIn, Min Sea Level PressureIn, Max VisibilityMiles, Mean VisibilityMiles, Min VisibilityMiles, Max Wind SpeedMPH, Mean Wind SpeedMPH, Max Gust SpeedMPH,PrecipitationIn, CloudCover, Events, WindDirDegrees
2013-1-1,33,25,16,31,23,9,92,83,73,30.26,30.16,30.08,9,4,1,14,8,16,0.03,7,,333
2013-1-2,20,11,2,11,7,0,95,81,67,30.33,30.28,30.26,8,6,2,8,2,14,0.00,0,,291
2013-1-3,36,19,2,25,9,-1,96,80,64,30.42,30.31,30.24,7,4,1,10,4,13,0.00,1,Snow,197
2013-1-4,34,24,14,23,17,13,92,76,59,30.46,30.41,30.38,9,4,0,15,6,21,0.00,1,Fog,217
2013-1-5,36,24,12,30,21,9,92,81,70,30.38,30.31,30.15,8,3,0,14,7,16,T,3,Fog-Snow,185
2013-1-6,36,24,11,31,23,10,92,78,63,30.43,30.26,30.08,8,5,0,23,10,26,0.00,5,Fog,271
2013-1-7,35,23,10,27,15,6,96,83,70,30.51,30.37,30.24,6,2,0,12,3,14,0.00,1,Fog,170
2013-1-8,39,27,15,31,22,13,100,85,70,30.30,30.25,30.21,8,3,0,10,4,,0.00,1,Fog,162
2013-1-9,50,41,31,42,35,30,92,82,71,30.53,30.38,30.23,8,4,0,14,4,17,0.20,4,Fog-Rain,234
2013-1-10,54,43,33,54,39,31,100,90,73,30.51,30.21,29.89,8,2,0,20,8,,0.89,7,Fog-Rain,90
2013-1-11,61,55,49,55,51,45,100,85,69,29.95,29.89,29.85,10,7,1,22,11,28,0.66,5,Rain-Thunderstorm,193
2013-1-12,64,54,43,61,53,42,100,84,67,29.99,29.83,29.67,10,3,0,48,8,75,1.60,6,Fog-Rain-Thunderstorm,82
2013-1-13,43,37,30,40,30,17,100,93,85,30.34,30.03,29.80,10,5,1,23,14,26,0.77,7,Rain-Snow,329
2013-1-14,25,22,18,20,17,14,88,81,74,30.48,30.43,30.33,10,8,6,16,9,20,0.00,2,,360
2013-1-15,31,26,20,24,21,18,92,81,69,30.41,30.30,30.14,7,5,2,15,9,18,0.00,3,,21
2013-1-16,35,32,28,31,25,22,85,71,56,30.15,30.11,30.06,8,6,4,12,6,14,0.00,3,,255
2013-1-17,44,35,25,33,26,19,92,75,57,30.51,30.30,30.15,10,8,4,25,10,30,0.00,2,,347
2013-1-18,40,31,21,28,24,18,92,74,56,30.56,30.42,30.21,10,10,6,22,10,29,0.00,0,,188
2013-1-19,56,47,37,38,32,26,76,60,43,30.22,30.09,29.96,10,10,10,31,19,37,0.00,0,,214
2013-1-20,46,36,26,34,17,12,76,57,38,30.34,30.26,30.09,10,10,10,23,11,30,0.00,2,,334
2013-1-21,26,20,13,18,7,-4,74,56,38,30.39,30.30,30.24,10,10,10,28,16,35,0.00,3,,300
2013-1-22,20,14,8,4,-1,-3,69,56,43,30.49,30.44,30.39,10,10,10,17,7,21,0.00,3,,301
2013-1-23,36,26,16,21,11,2,69,56,43,30.42,30.29,30.16,10,10,8,24,7,30,0.00,2,,225
2013-1-24,29,22,15,11,6,2,67,50,33,30.64,30.50,30.33,10,10,8,24,12,32,0.00,0,,53
2013-1-25,36,29,22,20,16,4,88,63,37,30.32,30.18,30.12,10,7,2,14,7,18,T,5,Rain,221
2013-1-26,37,29,21,20,17,12,77,61,44,30.42,30.36,30.23,8,7,6,14,6,17,0.00,0,,19
2013-1-27,45,34,23,41,30,17,92,78,64,30.39,30.23,30.07,6,4,2,21,10,24,0.16,6,Rain,138
2013-1-28,56,50,44,54,49,42,96,85,74,30.09,30.03,29.99,9,3,1,22,14,28,0.27,8,Rain,187
2013-1-29,66,60,54,59,55,51,93,86,78,29.97,29.70,29.37,10,5,0,45,20,55,0.58,6,Fog-Rain-Thunderstorm,194
2013-1-30,56,43,30,52,36,18,89,79,69,29.83,29.49,29.35,10,6,1,36,18,44,1.04,8,Rain-Snow-Thunderstorm,256
2013-1-31,34,23,11,27,16,1,92,73,53,30.32,30.07,29.86,10,5,0,32,18,41,T,7,Fog-Snow,296